User: anonymous   Login
Location: Unspecified
(0.0000°N, 0.0000°E)
Time: 03:40:35
(UTC+00:00)
Language:

Kosmos-1513 - Orbit

View from above orbital plane
View from above orbital plane
View from above satellite
View from above satellite

Ground track
Ground track

The orbit data is extracted from the following two-line orbital elements,

1 14546U 83120A   18017.52534476  .00000003  00000-0 -12619-4 0  9994
2 14546  82.9392 347.1287 0038505 176.4835 317.8897 13.74185783710493
Epoch (UTC): 17 January 2018 12:36:29
Eccentricity: 0.0038505
inclination: 82.9392°
perigee height: 956 km
apogee height: 1013 km
right ascension of ascending node: 347.1287°
argument of perigee: 176.4835°
revolutions per day: 13.74185783
mean anomaly at epoch: 317.8897°
orbit number at epoch: 71049

The dashed part of the orbit path shows where the satellite is in the earth's shadow,  

DLR